Terminal Aerodrome Forecast
Issued by NWS Milwaukee/Sullivan, WI

Home | Current Version | Previous Version | Text Only | Print | Product List | Glossary On
Versions: 1 2 3 4 5 6 7 8 9 10 11 12 13 14 15 16 17 18 19 20 21 22 23 24 25 26 27 28 29 30 31 32 33 34 35 36 37 38 39 40 41 42 43 44 45 46 47 48 49 50
000
FTUS43 KMKX 210520
TAFMSN
TAF
KMSN 210520Z 2106/2206 17004KT 6SM BR BKN020 OVC050
     FM211000 16005KT 3SM -FZDZ BR OVC008
     FM211300 16009KT 3SM -FZDZ BR OVC003
     FM211600 17009KT 3SM -DZ BR OVC008
     FM211800 17010KT 6SM BR OVC010
     FM220400 17011KT P6SM OVC015=

USA.gov is the U.S. government's official web portal to all federal, state and local government web resources and services.